Simultaneous Nadir Overpasses (SNOs) Predictions

Prediction of SNOs between FY3D and TERRA Satellite Orbit:

Table of predicted SNOs for the next 14.0 days since TLE Epoch: 11/9/2024
Index Date (FY3D) Time (FY3D) Lat,Lon (FY3D) SZA (FY3D ) Date (TERRA) Time (TERRA) Lat,Lon (TERRA) SZA (TERRA ) Distance(km) Time Diff (sec)
1 11/09/2024 06:53:09 -76.54,-103.09 86.49 11/09/2024 06:53:16 -76.54,-102.95 86.49 3.83 7
2 11/09/2024 07:43:50 76.34, 64.99 93.34 11/09/2024 07:42:38 76.42, 64.34 93.41 19.38 72
3 11/11/2024 17:14:59 76.61, -78.75 94.26 11/11/2024 17:16:11 76.59, -78.57 94.24 5.25 72
4 11/11/2024 18:05:42 -76.54, 88.83 85.80 11/11/2024 18:05:33 -76.53, 88.91 85.82 2.25 9
5 11/14/2024 04:27:30 76.59, 113.26 94.89 11/14/2024 04:28:25 76.59, 113.34 94.89 2.19 55
6 11/14/2024 05:18:13 -76.52, -79.16 85.17 11/14/2024 05:17:47 -76.53, -79.19 85.16 1.56 26
7 11/16/2024 15:40:02 76.59, -54.83 95.51 11/16/2024 15:40:39 76.56, -54.86 95.48 3.14 37
8 11/16/2024 16:30:45 -76.52, 112.75 84.55 11/16/2024 16:30:00 -76.55, 112.76 84.53 2.73 45
9 11/19/2024 02:52:33 76.57, 137.17 96.07 11/19/2024 02:52:50 76.59, 137.16 96.10 2.44 17
10 11/19/2024 03:43:17 -76.55, -55.44 83.94 11/19/2024 03:42:12 -76.53, -55.39 83.97 2.82 65
11 11/21/2024 13:14:26 -76.91, 160.42 83.07 11/21/2024 13:15:35 -76.84, 162.26 83.10 47.12 69
12 11/21/2024 14:05:04 76.58, -30.93 96.63 11/21/2024 14:05:00 76.59, -30.94 96.64 1.27 4



Historial Predications of SNOs between FY3D and TERRA
